K8JWL-13 Weather Reports


Display with metric or nautical units.
time (UTC)temp
F
wind
direction
speed
MPH
gust
MPH
rain 1hr
in
rain 24hr
in
rain mn
in
humidity
%
barometer
mb
20260503204239 64 183 4.0 0.0 157.50 0.00 0.00 34 1014.8
20260503203738 64 260 10.0 0.0 157.50 0.00 0.00 36 1014.9
20260503203238 64 309 4.0 0.0 157.50 0.00 0.00 35 1015.0
20260503203219 65 260 3.0 0.0 157.50 0.00 0.00 34 1015.0
20260503202739 64 232 3.0 0.0 157.50 0.00 0.00 31 1015.0
20260503201738 65 260 3.0 0.0 157.50 0.00 0.00 34 1015.0
20260503201239 65 259 8.0 0.0 157.50 0.00 0.00 32 1015.0
20260503200453 66 257 3.0 0.0 157.50 0.00 0.00 33 1015.1
20260503200238 66 257 3.0 0.0 157.50 0.00 0.00 33 1015.1
20260503195739 66 274 6.0 0.0 157.50 0.00 0.00 33 1015.1
20260503195420 66 208 6.0 0.0 157.50 0.00 0.00 31 1015.3
20260503195238 66 270 4.0 0.0 157.50 0.00 0.00 30 1015.3
20260503194738 66 174 2.0 0.0 157.50 0.00 0.00 32 1015.4
20260503194239 66 208 6.0 0.0 157.50 0.00 0.00 31 1015.3
20260503193730 66 235 6.0 0.0 157.50 0.00 0.00 33 1015.5
20260503193238 66 235 6.0 0.0 157.50 0.00 0.00 33 1015.5
20260503192944 65 257 4.0 0.0 157.50 0.00 0.00 35 1015.9
20260503192738 65 295 7.0 0.0 157.50 0.00 0.00 31 1015.8
20260503192238 65 215 6.0 0.0 157.50 0.00 0.00 33 1015.7
20260503191738 65 257 4.0 0.0 157.50 0.00 0.00 35 1015.9
20260503191347 65 224 7.0 0.0 157.50 0.00 0.00 34 1016.0
20260503190738 65 224 7.0 0.0 157.50 0.00 0.00 34 1016.0
20260503190238 65 249 10.0 0.0 157.50 0.00 0.00 35 1016.0
20260503185739 64 249 12.0 0.0 157.50 0.00 0.00 31 1016.2
20260503185238 64 217 6.0 0.0 157.50 0.00 0.00 35 1016.3
20260503184738 65 290 4.0 0.0 157.50 0.00 0.00 32 1016.3
20260503184428 65 319 3.0 0.0 157.50 0.00 0.00 32 1016.4
20260503184238 65 319 3.0 0.0 157.50 0.00 0.00 32 1016.4
20260503184017 65 80 6.0 0.0 157.50 0.00 0.00 33 1016.5
20260503183738 65 80 6.0 0.0 157.50 0.00 0.00 33 1016.5
20260503183238 65 302 2.0 0.0 157.50 0.00 0.00 31 1016.5
20260503182238 63 284 11.0 0.0 157.50 0.00 0.00 34 1016.6
20260503181738 63 217 7.0 0.0 157.50 0.00 0.00 34 1016.7
20260503181238 62 266 7.0 0.0 157.50 0.00 0.00 36 1016.7
20260503180738 62 214 11.0 0.0 157.50 0.00 0.00 35 1016.8
20260503180238 62 276 9.0 0.0 157.50 0.00 0.00 36 1016.8
20260503175738 62 260 9.0 0.0 157.50 0.00 0.00 36 1016.9
20260503175238 61 326 5.0 0.0 157.50 0.00 0.00 35 1017.0
20260503174738 61 359 7.0 0.0 157.50 0.00 0.00 36 1017.1
20260503174238 60 38 7.0 0.0 157.50 0.00 0.00 37 1017.2
20260503173739 60 211 2.0 0.0 157.50 0.00 0.00 37 1017.2
20260503173238 60 271 4.0 0.0 157.50 0.00 0.00 38 1017.3
20260503173015 60 225 6.0 0.0 157.50 0.00 0.00 37 1017.3
20260503172238 60 225 6.0 0.0 157.50 0.00 0.00 37 1017.3
20260503171238 60 291 9.0 0.0 157.50 0.00 0.00 38 1017.5
20260503170238 59 232 1.0 0.0 157.50 0.00 0.00 42 1017.6
20260503150738 54 312 5.0 0.0 157.50 0.00 0.00 46 1018.3
20260503150238 54 273 7.0 0.0 157.50 0.00 0.00 50 1018.3
20260503140237 49 314 8.0 0.0 157.50 0.00 0.00 58 1018.5
20260503131238 45 191 4.0 0.0 157.50 0.00 0.00 71 1018.9
20260503130737 45 321 3.0 0.0 157.50 0.00 0.00 73 1018.8
20260503130237 44 105 1.0 0.0 157.50 0.00 0.00 73 1018.9
20260503110737 34 245 0.0 0.0 157.50 0.00 0.00 88 1018.2
20260503110237 34 245 0.0 0.0 157.50 0.00 0.00 88 1018.2
20260503100237 34 245 0.0 0.0 157.50 0.00 0.00 87 1017.7
20260503090237 35 245 0.0 0.0 157.50 0.00 0.00 86 1017.6
20260503081237 35 245 0.0 0.0 157.50 0.00 0.00 86 1017.7
20260503080237 35 245 0.0 0.0 157.50 0.00 0.00 85 1017.7
20260503072237 36 245 0.0 0.0 157.50 0.00 0.00 85 1017.6
20260503071237 36 245 0.0 0.0 157.50 0.00 0.00 85 1017.7
20260503070737 36 245 0.0 0.0 157.50 0.00 0.00 84 1017.7
20260503070237 36 245 0.0 0.0 157.50 0.00 0.00 84 1017.7
20260503060237 37 245 0.0 0.0 157.50 0.00 0.00 83 1017.9
20260503054737 37 245 0.0 0.0 157.50 0.00 0.00 82 1018.0
20260503054237 37 245 0.0 0.0 157.50 0.00 0.00 82 1018.1
20260503053738 37 245 0.0 0.0 157.50 0.00 0.00 82 1018.1
20260503053237 38 245 0.0 0.0 157.50 0.00 0.00 82 1018.1
20260503052737 38 245 0.0 0.0 157.50 0.00 0.00 82 1018.1
20260503052237 38 245 0.0 0.0 157.50 0.00 0.00 81 1018.1
20260503051737 38 245 0.0 0.0 157.50 0.00 0.00 81 1018.0
20260503051237 38 245 0.0 0.0 157.50 0.00 0.00 81 1018.1
20260503050737 38 269 0.0 0.0 157.50 0.00 0.00 81 1018.0
20260503050237 38 269 0.0 0.0 157.50 0.00 0.00 81 1018.0
20260503045737 39 269 0.0 0.0 157.50 0.00 0.00 80 1018.1
20260503045237 39 269 0.0 0.0 157.50 0.00 0.00 80 1018.0
20260503044737 39 269 0.0 0.0 157.50 0.00 0.00 81 1018.1
20260503044237 39 269 0.0 0.0 157.50 0.00 0.00 80 1018.0
20260503043737 39 269 0.0 0.0 157.50 0.00 0.00 80 1017.9
20260503043237 39 269 0.0 0.0 157.50 0.00 0.00 80 1018.0
20260503042738 40 269 0.0 0.0 157.50 0.00 0.00 80 1017.9
20260503042237 40 269 0.0 0.0 157.50 0.00 0.00 80 1017.9
20260503041237 40 269 0.0 0.0 157.50 0.00 0.00 79 1018.0
20260503040737 40 269 0.0 0.0 157.50 0.00 0.00 78 1017.9
20260503040237 41 269 0.0 0.0 157.50 0.00 0.00 78 1018.0
20260503035237 41 269 0.0 0.0 157.50 0.00 0.00 78 1018.1
20260503034737 41 269 0.0 0.0 157.50 0.00 0.00 78 1018.1
20260503033737 41 269 0.0 0.0 157.50 0.00 0.00 79 1018.1
20260503033237 41 269 0.0 0.0 157.50 0.00 0.00 79 1018.1
20260503032737 42 269 0.0 0.0 157.50 0.00 0.00 79 1018.2
20260503032237 42 269 0.0 0.0 157.50 0.00 0.00 79 1018.2
20260503031237 42 269 0.0 0.0 157.50 0.00 0.00 78 1018.3
20260503030737 42 269 0.0 0.0 157.50 0.00 0.00 78 1018.3
20260503030237 42 269 0.0 0.0 157.50 0.00 0.00 78 1018.3
20260503025737 42 269 0.0 0.0 157.50 0.00 0.00 78 1018.4
20260503025237 42 269 0.0 0.0 157.50 0.00 0.00 78 1018.3
20260503024737 42 269 0.0 0.0 157.50 0.00 0.00 78 1018.3
20260503024237 42 269 0.0 0.0 157.50 0.00 0.00 77 1018.4
20260503023737 42 269 0.0 0.0 157.50 0.00 0.00 77 1018.4
20260503023236 42 269 0.0 0.0 157.50 0.00 0.00 76 1018.5
20260503022737 42 269 0.0 0.0 157.50 0.00 0.00 76 1018.4
20260503022236 42 269 0.0 0.0 157.50 0.00 0.00 75 1018.4
20260503021737 42 269 0.0 0.0 157.50 0.00 0.00 75 1018.5
20260503021237 42 269 0.0 0.0 157.50 0.00 0.00 74 1018.5
20260503020236 43 269 0.0 0.0 157.50 0.00 0.00 72 1018.4
20260503015737 43 269 0.0 0.0 157.50 0.00 0.00 71 1018.4
20260503015236 43 269 0.0 0.0 157.50 0.00 0.00 71 1018.3
20260503014736 43 269 0.0 0.0 157.50 0.00 0.00 71 1018.3
20260503014237 44 269 0.0 0.0 157.50 0.00 0.00 70 1018.3
20260503013736 44 269 0.0 0.0 157.50 0.00 0.00 69 1018.3
20260503012737 45 269 0.0 0.0 157.50 0.00 0.00 68 1018.1
20260503012236 45 269 0.0 0.0 157.50 0.00 0.00 66 1018.1
20260503011738 45 269 0.0 0.0 157.50 0.00 0.00 66 1018.1
20260503011237 45 269 0.0 0.0 157.50 0.00 0.00 66 1018.1
20260503010736 46 269 0.0 0.0 157.50 0.00 0.00 66 1018.1
20260503010236 46 269 0.0 0.0 157.50 0.00 0.00 66 1018.1
20260503005236 46 269 0.0 0.0 157.50 0.00 0.00 63 1018.1
20260503004736 46 269 0.0 0.0 157.50 0.00 0.00 63 1018.0
20260503004237 46 269 0.0 0.0 157.50 0.00 0.00 61 1018.0
20260503003236 47 269 0.0 0.0 157.50 0.00 0.00 60 1018.0
20260503002737 47 269 0.0 0.0 157.50 0.00 0.00 58 1017.9
20260503002236 47 269 0.0 0.0 157.50 0.00 0.00 57 1018.0
20260503001736 47 269 0.0 0.0 157.50 0.00 0.00 57 1017.9
20260503001237 47 269 1.0 0.0 157.50 0.00 0.00 57 1017.8
20260503000736 47 0 0.0 0.0 157.50 0.00 0.00 57 1017.8
20260503000236 47 314 0.0 0.0 157.50 0.00 0.00 57 1017.8
20260502235737 47 318 0.0 0.0 157.50 0.00 0.00 57 1017.9
20260502235238 47 312 0.0 0.0 157.50 0.00 0.00 57 1017.8
20260502234737 47 298 0.0 0.0 157.50 0.00 0.00 56 1017.8
20260502234237 47 305 0.0 0.0 157.50 0.00 0.00 55 1017.8
20260502233738 47 304 1.0 0.0 157.50 0.00 0.00 55 1017.7
20260502233236 47 263 2.0 0.0 157.50 0.00 0.00 55 1017.7
20260502232236 47 46 1.0 0.0 157.50 0.00 0.00 54 1017.7
20260502231237 47 338 2.0 0.0 157.50 0.00 0.00 54 1017.7
20260502230237 48 330 3.0 0.0 157.50 0.00 0.00 53 1017.8
20260502225236 48 7 4.0 0.0 157.50 0.00 0.00 54 1017.7
20260502224736 48 11 0.0 0.0 157.50 0.00 0.00 54 1017.7
20260502224237 48 319 3.0 0.0 157.50 0.00 0.00 53 1017.7
20260502223736 48 323 1.0 0.0 157.50 0.00 0.00 52 1017.7
20260502223236 48 14 3.0 0.0 157.50 0.00 0.00 52 1017.7
20260502222737 48 204 1.0 0.0 157.50 0.00 0.00 52 1017.6
20260502222239 48 339 6.0 0.0 157.50 0.00 0.00 53 1017.6
20260502221736 48 340 4.0 0.0 157.50 0.00 0.00 51 1017.6
20260502221237 48 301 3.0 0.0 157.50 0.00 0.00 50 1017.6
20260502220736 48 346 0.0 0.0 157.50 0.00 0.00 51 1017.6
20260502215736 48 349 4.0 0.0 157.50 0.00 0.00 50 1017.6
20260502215236 48 34 1.0 0.0 157.50 0.00 0.00 50 1017.6
20260502214736 48 339 4.0 0.0 157.50 0.00 0.00 50 1017.6
20260502214236 48 14 0.0 0.0 157.50 0.00 0.00 50 1017.6
20260502213736 49 359 7.0 0.0 157.50 0.00 0.00 50 1017.5
20260502213236 49 14 3.0 0.0 157.50 0.00 0.00 49 1017.5
20260502212736 49 329 5.0 0.0 157.50 0.00 0.00 48 1017.5
20260502212236 49 278 7.0 0.0 157.50 0.00 0.00 50 1017.4
20260502211736 49 17 8.0 0.0 157.50 0.00 0.00 50 1017.4
20260502211543 49 308 4.0 0.0 157.50 0.00 0.00 48 1017.4
20260502211236 49 308 4.0 0.0 157.50 0.00 0.00 48 1017.4
20260502210736 49 281 9.0 0.0 157.50 0.00 0.00 48 1017.3
20260502210236 49 332 4.0 0.0 157.50 0.00 0.00 49 1017.4
20260502205236 49 288 5.0 0.0 157.50 0.00 0.00 48 1017.3
20260502204738 49 6 4.0 0.0 157.50 0.00 0.00 46 1017.3